BEL9HZ EGCC-EBBR

Flight info

Callsign BEL9HZ
Flight time 0h 56m
Altitude 35000
Route LISTO L612 HON L15 BIG Q70 KOK
Aircraft A319/M-SDE3FGHIRWY/LB1

Departure

Time 2026-05-06 19:14
Airport Manchester Airport (EGCC)

Arrival

Time 2026-05-06 20:10
Airport Brussels Airport (EBBR)
Time Latitude Longitude Altitude Speed Heading
2026-05-06 18:48 53.36556 -2.27931 255 ft 0 kts 45°
2026-05-06 19:05 53.36550 -2.27941 255 ft 4 kts 45°
2026-05-06 19:05 53.36531 -2.27973 255 ft 4 kts 45°
2026-05-06 19:05 53.36515 -2.28000 255 ft 4 kts 51°
2026-05-06 19:06 53.36508 -2.28030 255 ft 4 kts 124°
2026-05-06 19:06 53.36520 -2.28053 255 ft 3 kts 135°
2026-05-06 19:06 53.36509 -2.28035 255 ft 3 kts 135°
2026-05-06 19:06 53.36506 -2.28030 255 ft 0 kts 135°
2026-05-06 19:08 53.36505 -2.28028 255 ft 1 kts 135°
2026-05-06 19:08 53.36482 -2.27999 255 ft 9 kts 150°
2026-05-06 19:09 53.36419 -2.27924 255 ft 11 kts 156°
2026-05-06 19:09 53.36356 -2.27995 255 ft 13 kts 226°
2026-05-06 19:09 53.36257 -2.28080 255 ft 19 kts 209°
2026-05-06 19:09 53.36134 -2.28113 255 ft 20 kts 137°
2026-05-06 19:10 53.36028 -2.27952 255 ft 21 kts 138°
2026-05-06 19:10 53.35904 -2.27849 255 ft 21 kts 183°
2026-05-06 19:10 53.35748 -2.27875 247 ft 25 kts 186°
2026-05-06 19:10 53.35564 -2.27907 237 ft 26 kts 186°
2026-05-06 19:11 53.35419 -2.27980 237 ft 23 kts 223°
2026-05-06 19:11 53.35303 -2.28170 234 ft 25 kts 224°
2026-05-06 19:11 53.35185 -2.28391 229 ft 27 kts 231°
2026-05-06 19:11 53.35068 -2.28638 229 ft 27 kts 231°
2026-05-06 19:12 53.34941 -2.28874 226 ft 28 kts 227°
2026-05-06 19:12 53.34809 -2.29067 219 ft 17 kts 198°
2026-05-06 19:12 53.34694 -2.29024 220 ft 18 kts 144°
2026-05-06 19:12 53.34712 -2.28864 221 ft 15 kts 50°
2026-05-06 19:13 53.34778 -2.28731 227 ft 18 kts 51°
2026-05-06 19:13 53.34981 -2.28310 232 ft 84 kts 51°
2026-05-06 19:13 53.35489 -2.27255 252 ft 146 kts 51°
2026-05-06 19:13 53.36142 -2.25900 812 ft 148 kts 53°
2026-05-06 19:14 53.36788 -2.24579 1547 ft 147 kts 53°
2026-05-06 19:14 53.37429 -2.23211 2103 ft 157 kts 60°
2026-05-06 19:14 53.37632 -2.21352 2467 ft 173 kts 99°
2026-05-06 19:14 53.37114 -2.19436 2845 ft 196 kts 130°
2026-05-06 19:15 53.35929 -2.17960 3145 ft 229 kts 148°
2026-05-06 19:15 53.34427 -2.16814 3777 ft 250 kts 169°
2026-05-06 19:15 53.32650 -2.16954 4632 ft 261 kts 188°
2026-05-06 19:15 53.30820 -2.17337 4962 ft 266 kts 187°
2026-05-06 19:16 53.28980 -2.17650 5000 ft 266 kts 186°
2026-05-06 19:16 53.27139 -2.17931 5012 ft 265 kts 186°
2026-05-06 19:16 53.25288 -2.18207 5353 ft 269 kts 186°
2026-05-06 19:16 53.23420 -2.18488 6442 ft 271 kts 187°
2026-05-06 19:17 53.21523 -2.18778 7339 ft 277 kts 187°
2026-05-06 19:17 53.19581 -2.19078 8250 ft 282 kts 187°
2026-05-06 19:17 53.17611 -2.19386 9177 ft 287 kts 187°
2026-05-06 19:17 53.15606 -2.19682 10079 ft 292 kts 184°
2026-05-06 19:18 53.13572 -2.19306 10885 ft 299 kts 165°
2026-05-06 19:18 53.11576 -2.18054 11376 ft 318 kts 159°
2026-05-06 19:18 53.09458 -2.16592 11711 ft 339 kts 158°
2026-05-06 19:18 53.07252 -2.15051 12388 ft 347 kts 158°
2026-05-06 19:19 53.05010 -2.13482 13160 ft 352 kts 158°
2026-05-06 19:19 53.02733 -2.11898 13936 ft 357 kts 159°
2026-05-06 19:19 53.00426 -2.10299 14633 ft 361 kts 159°
2026-05-06 19:19 52.98095 -2.08687 15345 ft 364 kts 159°
2026-05-06 19:20 52.95744 -2.07065 16043 ft 368 kts 159°
2026-05-06 19:20 52.93372 -2.05436 16747 ft 371 kts 159°
2026-05-06 19:20 52.90979 -2.03795 17455 ft 374 kts 159°
2026-05-06 19:20 52.88563 -2.02146 18155 ft 377 kts 159°
2026-05-06 19:21 52.86126 -2.00483 18790 ft 381 kts 159°
2026-05-06 19:21 52.83665 -1.98797 19382 ft 384 kts 159°
2026-05-06 19:21 52.81183 -1.97096 19976 ft 388 kts 159°
2026-05-06 19:21 52.78682 -1.95384 20562 ft 391 kts 159°
2026-05-06 19:22 52.76157 -1.93661 21164 ft 395 kts 159°
2026-05-06 19:22 52.73608 -1.91922 21730 ft 398 kts 159°
2026-05-06 19:22 52.71033 -1.90168 22310 ft 402 kts 159°
2026-05-06 19:22 52.68434 -1.88401 22876 ft 405 kts 159°
2026-05-06 19:23 52.65817 -1.86629 23446 ft 409 kts 159°
2026-05-06 19:23 52.63175 -1.84841 23926 ft 412 kts 159°
2026-05-06 19:23 52.60513 -1.83042 24382 ft 415 kts 159°
2026-05-06 19:23 52.57834 -1.81242 24838 ft 418 kts 159°
2026-05-06 19:24 52.55134 -1.79428 25289 ft 420 kts 159°
2026-05-06 19:24 52.52414 -1.77602 25731 ft 423 kts 159°
2026-05-06 19:24 52.49684 -1.75766 26162 ft 425 kts 159°
2026-05-06 19:24 52.46934 -1.73916 26605 ft 428 kts 159°
2026-05-06 19:25 52.44177 -1.72063 27041 ft 430 kts 159°
2026-05-06 19:25 52.41401 -1.70201 27473 ft 433 kts 159°
2026-05-06 19:25 52.38614 -1.68294 27898 ft 436 kts 156°
2026-05-06 19:25 52.35964 -1.65844 28307 ft 441 kts 147°
2026-05-06 19:26 52.33559 -1.62700 28713 ft 445 kts 137°
2026-05-06 19:26 52.31399 -1.59054 29107 ft 448 kts 134°
2026-05-06 19:26 52.29242 -1.55349 29502 ft 451 kts 135°
2026-05-06 19:26 52.27073 -1.51639 29868 ft 453 kts 135°
2026-05-06 19:27 52.24886 -1.47914 30222 ft 456 kts 135°
2026-05-06 19:27 52.22683 -1.44174 30532 ft 458 kts 136°
2026-05-06 19:27 52.20467 -1.40424 30837 ft 460 kts 136°
2026-05-06 19:27 52.18239 -1.36662 31146 ft 462 kts 136°
2026-05-06 19:28 52.16005 -1.32881 31442 ft 464 kts 136°
2026-05-06 19:28 52.13763 -1.29085 31792 ft 465 kts 135°
2026-05-06 19:28 52.11523 -1.25294 32224 ft 464 kts 135°
2026-05-06 19:28 52.09287 -1.21515 32651 ft 463 kts 135°
2026-05-06 19:29 52.07055 -1.17754 33056 ft 462 kts 136°
2026-05-06 19:29 52.04817 -1.14004 33472 ft 462 kts 136°
2026-05-06 19:29 52.02583 -1.10267 33878 ft 461 kts 136°
2026-05-06 19:29 52.00355 -1.06542 34275 ft 459 kts 136°
2026-05-06 19:30 51.98131 -1.02828 34616 ft 459 kts 136°
2026-05-06 19:30 51.95906 -0.99110 34921 ft 459 kts 136°
2026-05-06 19:30 51.93680 -0.95402 35013 ft 457 kts 136°
2026-05-06 19:31 51.89274 -0.88073 35022 ft 452 kts 136°
2026-05-06 19:31 51.82695 -0.77169 35025 ft 451 kts 136°
2026-05-06 19:32 51.78305 -0.69924 35024 ft 451 kts 136°
2026-05-06 19:32 51.73915 -0.62706 35025 ft 450 kts 136°
2026-05-06 19:33 51.69526 -0.55498 35026 ft 450 kts 136°
2026-05-06 19:33 51.65132 -0.48314 35031 ft 450 kts 136°
2026-05-06 19:34 51.60736 -0.41129 35033 ft 450 kts 136°
2026-05-06 19:34 51.56332 -0.33963 35029 ft 450 kts 136°
2026-05-06 19:35 51.51943 -0.26774 35033 ft 451 kts 131°
2026-05-06 19:35 51.50219 -0.22568 35039 ft 453 kts 116°
2026-05-06 19:35 51.49251 -0.17768 35043 ft 454 kts 101°
2026-05-06 19:36 51.48207 -0.07780 35016 ft 454 kts 99°
2026-05-06 19:36 51.47180 0.02227 35022 ft 455 kts 100°
2026-05-06 19:37 51.46135 0.12234 35023 ft 455 kts 100°
2026-05-06 19:37 51.45251 0.20542 35041 ft 454 kts 100°
2026-05-06 19:38 51.44002 0.32191 35036 ft 453 kts 100°
2026-05-06 19:38 51.42931 0.42124 35040 ft 452 kts 100°
2026-05-06 19:39 51.41850 0.52043 35036 ft 451 kts 100°
2026-05-06 19:39 51.40760 0.61934 35033 ft 451 kts 101°
2026-05-06 19:40 51.39662 0.71813 35030 ft 450 kts 101°
2026-05-06 19:40 51.38561 0.81676 35022 ft 450 kts 101°
2026-05-06 19:41 51.37458 0.91529 35019 ft 450 kts 101°
2026-05-06 19:41 51.36341 1.01398 34442 ft 456 kts 101°
2026-05-06 19:42 51.35770 1.06399 33809 ft 455 kts 101°
2026-05-06 19:42 51.35203 1.11349 33115 ft 453 kts 101°
2026-05-06 19:42 51.34634 1.16286 32502 ft 451 kts 101°
2026-05-06 19:42 51.34065 1.21200 31920 ft 447 kts 101°
2026-05-06 19:43 51.33498 1.26070 31344 ft 444 kts 101°
2026-05-06 19:43 51.32934 1.30898 30775 ft 440 kts 101°
2026-05-06 19:43 51.32373 1.35693 30213 ft 438 kts 101°
2026-05-06 19:43 51.31797 1.40596 29583 ft 458 kts 101°
2026-05-06 19:44 51.31204 1.45624 29010 ft 462 kts 101°
2026-05-06 19:44 51.30809 1.48961 28619 ft 461 kts 101°
2026-05-06 19:44 51.30213 1.53985 28034 ft 459 kts 101°
2026-05-06 19:44 51.29622 1.58971 27467 ft 455 kts 101°
2026-05-06 19:45 51.29034 1.63916 26901 ft 451 kts 101°
2026-05-06 19:45 51.28446 1.68821 26365 ft 448 kts 101°
2026-05-06 19:45 51.27859 1.73684 25824 ft 444 kts 101°
2026-05-06 19:45 51.27274 1.78514 25314 ft 441 kts 101°
2026-05-06 19:46 51.26692 1.83307 24806 ft 438 kts 101°
2026-05-06 19:46 51.26096 1.88060 24345 ft 435 kts 104°
2026-05-06 19:46 51.25201 1.92717 24092 ft 433 kts 109°
2026-05-06 19:46 51.24281 1.97282 23854 ft 431 kts 109°
2026-05-06 19:47 51.23361 2.01831 23621 ft 430 kts 109°
2026-05-06 19:47 51.22441 2.06354 23351 ft 428 kts 109°
2026-05-06 19:47 51.21522 2.10865 23071 ft 427 kts 109°
2026-05-06 19:47 51.20605 2.15350 22964 ft 425 kts 109°
2026-05-06 19:48 51.19697 2.19776 22994 ft 426 kts 109°
2026-05-06 19:48 51.18775 2.24255 22990 ft 426 kts 109°
2026-05-06 19:48 51.17852 2.28738 22984 ft 426 kts 109°
2026-05-06 19:48 51.16926 2.33216 22991 ft 426 kts 109°
2026-05-06 19:49 51.16000 2.37690 22990 ft 426 kts 109°
2026-05-06 19:49 51.15071 2.42170 22992 ft 426 kts 109°
2026-05-06 19:49 51.14139 2.46649 22982 ft 426 kts 109°
2026-05-06 19:49 51.13205 2.51126 22984 ft 426 kts 109°
2026-05-06 19:50 51.12268 2.55603 22985 ft 426 kts 109°
2026-05-06 19:50 51.11321 2.60117 22982 ft 419 kts 110°
2026-05-06 19:50 51.10418 2.64418 22991 ft 401 kts 110°
2026-05-06 19:50 51.09549 2.68555 22977 ft 390 kts 110°
2026-05-06 19:51 51.08691 2.72633 22984 ft 388 kts 110°
2026-05-06 19:51 51.07835 2.76694 22977 ft 387 kts 110°
2026-05-06 19:51 51.06976 2.80749 22980 ft 387 kts 110°
2026-05-06 19:51 51.06114 2.84818 22655 ft 389 kts 110°
2026-05-06 19:52 51.05248 2.88904 22152 ft 388 kts 110°
2026-05-06 19:52 51.04390 2.92943 21614 ft 386 kts 109°
2026-05-06 19:52 51.03534 2.96964 21248 ft 380 kts 109°
2026-05-06 19:52 51.02684 3.00951 20652 ft 382 kts 109°
2026-05-06 19:53 51.01735 3.04826 20340 ft 373 kts 120°
2026-05-06 19:53 51.00221 3.08111 19902 ft 367 kts 131°
2026-05-06 19:53 50.98556 3.11180 19438 ft 365 kts 132°
2026-05-06 19:53 50.96890 3.14210 18988 ft 363 kts 132°
2026-05-06 19:54 50.95230 3.17213 18549 ft 361 kts 132°
2026-05-06 19:54 50.93575 3.20190 18093 ft 359 kts 132°
2026-05-06 19:54 50.91926 3.23147 17606 ft 357 kts 132°
2026-05-06 19:54 50.90284 3.26080 17140 ft 354 kts 132°
2026-05-06 19:55 50.88813 3.29184 16691 ft 353 kts 118°
2026-05-06 19:55 50.87816 3.32717 16247 ft 350 kts 112°
2026-05-06 19:55 50.86885 3.36263 15838 ft 348 kts 112°
2026-05-06 19:55 50.85963 3.39789 15420 ft 346 kts 112°
2026-05-06 19:56 50.85049 3.43291 15012 ft 343 kts 112°
2026-05-06 19:56 50.84139 3.46773 14607 ft 342 kts 112°
2026-05-06 19:56 50.83233 3.50239 14196 ft 340 kts 112°
2026-05-06 19:56 50.82331 3.53687 13790 ft 338 kts 112°
2026-05-06 19:57 50.81434 3.57114 13354 ft 336 kts 112°
2026-05-06 19:57 50.80539 3.60511 12925 ft 334 kts 112°
2026-05-06 19:57 50.79643 3.63881 12489 ft 332 kts 112°
2026-05-06 19:57 50.78743 3.67231 12054 ft 330 kts 112°
2026-05-06 19:58 50.77845 3.70552 11641 ft 327 kts 112°
2026-05-06 19:58 50.76951 3.73839 11234 ft 324 kts 112°
2026-05-06 19:58 50.76058 3.77098 10853 ft 322 kts 112°
2026-05-06 19:58 50.75172 3.80320 10467 ft 318 kts 112°
2026-05-06 19:59 50.74295 3.83489 10264 ft 309 kts 112°
2026-05-06 19:59 50.73447 3.86539 10139 ft 298 kts 112°
2026-05-06 19:59 50.72624 3.89496 9901 ft 292 kts 112°
2026-05-06 19:59 50.71807 3.92411 9548 ft 289 kts 112°
2026-05-06 20:00 50.70996 3.95301 9157 ft 287 kts 112°
2026-05-06 20:00 50.70188 3.98176 8758 ft 286 kts 112°
2026-05-06 20:00 50.69385 4.01038 8357 ft 285 kts 112°
2026-05-06 20:00 50.68587 4.03885 7997 ft 283 kts 112°
2026-05-06 20:01 50.68038 4.06826 7665 ft 279 kts 96°
2026-05-06 20:01 50.67854 4.09860 7299 ft 276 kts 93°
2026-05-06 20:01 50.67707 4.12861 6940 ft 273 kts 92°
2026-05-06 20:01 50.67562 4.15845 6554 ft 272 kts 92°
2026-05-06 20:02 50.67417 4.18815 6148 ft 271 kts 92°
2026-05-06 20:02 50.67272 4.21755 5717 ft 266 kts 92°
2026-05-06 20:02 50.67123 4.24615 5255 ft 258 kts 92°
2026-05-06 20:02 50.66973 4.27370 4898 ft 247 kts 92°
2026-05-06 20:03 50.66821 4.30021 4537 ft 239 kts 92°
2026-05-06 20:03 50.66669 4.32603 4169 ft 235 kts 92°
2026-05-06 20:03 50.66715 4.35129 3819 ft 228 kts 70°
2026-05-06 20:03 50.67499 4.37211 3458 ft 218 kts 46°
2026-05-06 20:04 50.68535 4.38922 3094 ft 213 kts 43°
2026-05-06 20:04 50.69570 4.40536 2822 ft 204 kts 43°
2026-05-06 20:04 50.70682 4.41779 2639 ft 190 kts 21°
2026-05-06 20:04 50.71913 4.42327 2503 ft 178 kts 14°
2026-05-06 20:05 50.73100 4.42807 2304 ft 174 kts 15°
2026-05-06 20:05 50.74262 4.43278 2128 ft 170 kts 15°
2026-05-06 20:05 50.75372 4.43727 2034 ft 160 kts 15°
2026-05-06 20:05 50.76434 4.44158 2011 ft 156 kts 15°
2026-05-06 20:06 50.77416 4.44556 2006 ft 136 kts 15°
2026-05-06 20:06 50.78302 4.44915 2004 ft 129 kts 15°
2026-05-06 20:06 50.79161 4.45264 2004 ft 127 kts 15°
2026-05-06 20:06 50.80008 4.45609 1927 ft 125 kts 16°
2026-05-06 20:07 50.80846 4.45949 1797 ft 124 kts 17°
2026-05-06 20:07 50.81680 4.46288 1660 ft 124 kts 17°
2026-05-06 20:07 50.82509 4.46625 1491 ft 123 kts 17°
2026-05-06 20:07 50.83336 4.46963 1306 ft 123 kts 18°
2026-05-06 20:08 50.84162 4.47301 1124 ft 123 kts 17°
2026-05-06 20:08 50.84991 4.47647 949 ft 124 kts 17°
2026-05-06 20:08 50.85827 4.47966 772 ft 123 kts 14°
2026-05-06 20:08 50.86660 4.48310 647 ft 124 kts 15°
2026-05-06 20:09 50.87496 4.48652 485 ft 124 kts 16°
2026-05-06 20:09 50.88330 4.48991 307 ft 123 kts 15°
2026-05-06 20:09 50.89151 4.49328 178 ft 115 kts 13°
2026-05-06 20:09 50.89802 4.49594 144 ft 73 kts 14°
2026-05-06 20:10 50.90143 4.49713 128 ft 34 kts 359°
2026-05-06 20:10 50.90337 4.49657 125 ft 10 kts 344°
2026-05-06 20:10 50.90379 4.49638 125 ft 7 kts 344°
2026-05-06 20:10 50.90416 4.49596 123 ft 7 kts 277°
2026-05-06 20:11 50.90389 4.49523 123 ft 8 kts 238°
2026-05-06 20:11 50.90355 4.49420 123 ft 13 kts 245°
2026-05-06 20:11 50.90314 4.49281 125 ft 15 kts 245°
2026-05-06 20:11 50.90272 4.49132 124 ft 15 kts 245°
2026-05-06 20:12 50.90227 4.48979 126 ft 14 kts 245°
2026-05-06 20:12 50.90183 4.48917 127 ft 8 kts 172°
2026-05-06 20:12 50.90147 4.48947 129 ft 4 kts 154°
2026-05-06 20:12 50.90130 4.48958 129 ft 1 kts 157°
2026-05-06 20:13 50.90128 4.48959 130 ft 0 kts 157°